DAL8877 KBFI-KLAX

Flight info

Callsign DAL8877
Flight time 2h 4m
Altitude 39000
Route ZIGED TAOMA J5 SUMMA JINMO Q7 JAGWA BURGL IRNMN2
Aircraft B752/M-SDE3FGHIM3RWXY/LB1

Departure

Time 2026-05-07 00:31
Airport King County International Airport - Boeing Field (KBFI)

Arrival

Time 2026-05-07 02:35
Airport Los Angeles International Airport (KLAX)
Time Latitude Longitude Altitude Speed Heading
2026-05-06 23:28 47.52635 -122.29673 26 ft 0 kts 151°
2026-05-07 00:23 47.52620 -122.29667 26 ft 3 kts 182°
2026-05-07 00:23 47.52597 -122.29702 25 ft 6 kts 259°
2026-05-07 00:23 47.52626 -122.29771 24 ft 9 kts 328°
2026-05-07 00:23 47.52689 -122.29824 24 ft 10 kts 330°
2026-05-07 00:24 47.52751 -122.29853 23 ft 8 kts
2026-05-07 00:24 47.52817 -122.29836 23 ft 10 kts 11°
2026-05-07 00:24 47.52893 -122.29855 24 ft 10 kts 328°
2026-05-07 00:24 47.52952 -122.29905 24 ft 10 kts 330°
2026-05-07 00:25 47.53015 -122.29959 25 ft 10 kts 330°
2026-05-07 00:25 47.53083 -122.30016 25 ft 11 kts 330°
2026-05-07 00:25 47.53149 -122.30072 25 ft 11 kts 332°
2026-05-07 00:25 47.53217 -122.30128 25 ft 11 kts 330°
2026-05-07 00:26 47.53289 -122.30190 25 ft 12 kts 330°
2026-05-07 00:26 47.53365 -122.30256 26 ft 13 kts 329°
2026-05-07 00:26 47.53445 -122.30320 26 ft 13 kts 332°
2026-05-07 00:26 47.53528 -122.30387 26 ft 13 kts 331°
2026-05-07 00:27 47.53608 -122.30473 26 ft 14 kts 322°
2026-05-07 00:27 47.53690 -122.30570 26 ft 14 kts 321°
2026-05-07 00:27 47.53729 -122.30603 26 ft 12 kts 337°
2026-05-07 00:27 47.53864 -122.30706 27 ft 28 kts 331°
2026-05-07 00:28 47.54001 -122.30823 27 ft 19 kts 328°
2026-05-07 00:28 47.54081 -122.30905 27 ft 10 kts 322°
2026-05-07 00:28 47.54098 -122.30985 26 ft 7 kts 252°
2026-05-07 00:28 47.54090 -122.31010 25 ft 0 kts 238°
2026-05-07 00:29 47.54089 -122.31014 25 ft 1 kts 239°
2026-05-07 00:30 47.54017 -122.31104 24 ft 8 kts 153°
2026-05-07 00:30 47.53887 -122.30997 23 ft 36 kts 150°
2026-05-07 00:30 47.53602 -122.30757 24 ft 60 kts 151°
2026-05-07 00:30 47.53093 -122.30334 22 ft 107 kts 152°
2026-05-07 00:31 47.52310 -122.29666 24 ft 149 kts 152°
2026-05-07 00:31 47.51322 -122.28826 291 ft 173 kts 151°
2026-05-07 00:31 47.50255 -122.27868 854 ft 188 kts 151°
2026-05-07 00:31 47.49082 -122.26814 1376 ft 207 kts 150°
2026-05-07 00:32 47.47856 -122.25687 1374 ft 208 kts 149°
2026-05-07 00:32 47.46668 -122.24490 1135 ft 206 kts 150°
2026-05-07 00:32 47.45459 -122.23478 1101 ft 195 kts 153°
2026-05-07 00:32 47.44274 -122.22532 1090 ft 204 kts 154°
2026-05-07 00:33 47.42974 -122.21500 1534 ft 214 kts 154°
2026-05-07 00:33 47.41627 -122.20434 1678 ft 225 kts 153°
2026-05-07 00:33 47.40192 -122.19318 1858 ft 241 kts 154°
2026-05-07 00:33 47.38657 -122.18094 2126 ft 256 kts 153°
2026-05-07 00:34 47.37104 -122.16815 2639 ft 262 kts 152°
2026-05-07 00:34 47.35530 -122.15462 3609 ft 262 kts 151°
2026-05-07 00:34 47.33918 -122.14080 4411 ft 270 kts 152°
2026-05-07 00:34 47.32288 -122.12682 5247 ft 274 kts 152°
2026-05-07 00:35 47.30631 -122.11260 6057 ft 279 kts 152°
2026-05-07 00:35 47.28936 -122.09809 6774 ft 285 kts 153°
2026-05-07 00:35 47.27210 -122.08328 7462 ft 292 kts 153°
2026-05-07 00:35 47.25456 -122.06827 8133 ft 298 kts 153°
2026-05-07 00:36 47.23649 -122.05278 8807 ft 304 kts 153°
2026-05-07 00:36 47.21795 -122.03690 9500 ft 308 kts 153°
2026-05-07 00:36 47.19948 -122.02108 10041 ft 313 kts 153°
2026-05-07 00:36 47.18027 -122.00464 10458 ft 329 kts 153°
2026-05-07 00:37 47.15968 -121.98707 10863 ft 351 kts 153°
2026-05-07 00:37 47.13794 -121.96851 11279 ft 372 kts 153°
2026-05-07 00:37 47.11510 -121.94899 11743 ft 391 kts 153°
2026-05-07 00:37 47.09115 -121.92850 12600 ft 398 kts 153°
2026-05-07 00:38 47.06703 -121.90784 13444 ft 404 kts 153°
2026-05-07 00:38 47.04163 -121.88969 14208 ft 405 kts 166°
2026-05-07 00:38 47.01494 -121.88107 14666 ft 401 kts 180°
2026-05-07 00:38 46.98702 -121.88326 15441 ft 393 kts 197°
2026-05-07 00:39 46.96130 -121.89565 16144 ft 389 kts 212°
2026-05-07 00:39 46.93919 -121.91673 16897 ft 382 kts 223°
2026-05-07 00:39 46.91671 -121.93838 17563 ft 393 kts 213°
2026-05-07 00:39 46.89125 -121.95434 18305 ft 400 kts 206°
2026-05-07 00:40 46.86450 -121.96735 18825 ft 411 kts 202°
2026-05-07 00:40 46.83700 -121.97845 19457 ft 416 kts 201°
2026-05-07 00:40 46.80860 -121.98883 19953 ft 423 kts 199°
2026-05-07 00:40 46.78013 -121.99854 20566 ft 426 kts 199°
2026-05-07 00:41 46.75069 -122.00821 21166 ft 434 kts 198°
2026-05-07 00:41 46.72122 -122.01762 21795 ft 440 kts 198°
2026-05-07 00:41 46.69139 -122.02698 22432 ft 444 kts 198°
2026-05-07 00:41 46.66093 -122.03648 23019 ft 449 kts 198°
2026-05-07 00:42 46.63052 -122.04588 23653 ft 453 kts 198°
2026-05-07 00:42 46.59942 -122.05547 24218 ft 458 kts 198°
2026-05-07 00:42 46.56789 -122.06516 24791 ft 463 kts 198°
2026-05-07 00:42 46.53637 -122.07484 25326 ft 468 kts 197°
2026-05-07 00:43 46.50422 -122.08469 25794 ft 474 kts 198°
2026-05-07 00:43 46.47216 -122.09448 26420 ft 475 kts 197°
2026-05-07 00:43 46.43982 -122.10437 26875 ft 481 kts 197°
2026-05-07 00:43 46.40672 -122.11420 27355 ft 486 kts 195°
2026-05-07 00:44 46.37301 -122.11887 27850 ft 496 kts 185°
2026-05-07 00:44 46.33822 -122.11606 28254 ft 506 kts 176°
2026-05-07 00:44 46.30333 -122.10822 28702 ft 511 kts 174°
2026-05-07 00:44 46.26771 -122.09997 29076 ft 516 kts 174°
2026-05-07 00:45 46.23243 -122.09170 29486 ft 520 kts 174°
2026-05-07 00:45 46.19641 -122.08318 29929 ft 523 kts 174°
2026-05-07 00:45 46.16084 -122.07473 30388 ft 525 kts 174°
2026-05-07 00:45 46.12492 -122.06619 30880 ft 525 kts 174°
2026-05-07 00:46 46.08870 -122.05756 31446 ft 524 kts 174°
2026-05-07 00:46 46.05310 -122.04909 31948 ft 522 kts 174°
2026-05-07 00:46 46.01721 -122.04056 32369 ft 522 kts 174°
2026-05-07 00:46 45.98160 -122.03210 32768 ft 522 kts 174°
2026-05-07 00:47 45.94571 -122.02360 33119 ft 522 kts 174°
2026-05-07 00:47 45.90981 -122.01509 33469 ft 521 kts 173°
2026-05-07 00:47 45.87422 -122.00667 33882 ft 519 kts 173°
2026-05-07 00:47 45.83905 -121.99835 34220 ft 518 kts 173°
2026-05-07 00:48 45.80342 -121.98994 34578 ft 516 kts 173°
2026-05-07 00:48 45.76833 -121.98167 34896 ft 515 kts 173°
2026-05-07 00:48 45.73304 -121.97337 35107 ft 516 kts 173°
2026-05-07 00:48 45.69765 -121.96503 35407 ft 514 kts 173°
2026-05-07 00:49 45.66248 -121.95678 35719 ft 513 kts 173°
2026-05-07 00:49 45.62701 -121.94846 35982 ft 512 kts 173°
2026-05-07 00:49 45.59204 -121.94027 36348 ft 512 kts 173°
2026-05-07 00:49 45.55716 -121.93211 36912 ft 510 kts 173°
2026-05-07 00:50 45.52210 -121.92393 37389 ft 510 kts 173°
2026-05-07 00:50 45.48728 -121.91579 37920 ft 507 kts 173°
2026-05-07 00:50 45.45215 -121.90761 38277 ft 508 kts 173°
2026-05-07 00:50 45.41761 -121.89957 38667 ft 507 kts 173°
2026-05-07 00:51 45.38282 -121.89148 38983 ft 507 kts 173°
2026-05-07 00:51 45.34778 -121.88335 39143 ft 510 kts 173°
2026-05-07 00:51 45.27682 -121.86692 39132 ft 521 kts 173°
2026-05-07 00:52 45.24117 -121.85864 39123 ft 505 kts 173°
2026-05-07 00:52 45.20711 -121.85076 39125 ft 494 kts 173°
2026-05-07 00:52 45.13937 -121.83516 39131 ft 491 kts 173°
2026-05-07 00:53 45.07190 -121.81964 39127 ft 489 kts 173°
2026-05-07 00:53 45.00468 -121.80422 39132 ft 488 kts 173°
2026-05-07 00:54 44.93721 -121.78877 39138 ft 486 kts 173°
2026-05-07 00:54 44.87036 -121.77351 39139 ft 484 kts 173°
2026-05-07 00:55 44.80427 -121.75844 39147 ft 482 kts 173°
2026-05-07 00:55 44.73792 -121.74335 39145 ft 481 kts 173°
2026-05-07 00:56 44.67191 -121.72839 39156 ft 479 kts 172°
2026-05-07 00:56 44.60604 -121.71349 39146 ft 477 kts 172°
2026-05-07 00:57 44.54035 -121.69865 39159 ft 476 kts 173°
2026-05-07 00:57 44.47509 -121.68395 39177 ft 474 kts 172°
2026-05-07 00:58 44.40990 -121.66930 39170 ft 473 kts 172°
2026-05-07 00:58 44.34449 -121.65464 39178 ft 472 kts 172°
2026-05-07 00:59 44.24728 -121.63219 39187 ft 471 kts 172°
2026-05-07 01:00 44.18257 -121.61719 39205 ft 470 kts 172°
2026-05-07 01:00 44.11791 -121.60223 39201 ft 469 kts 172°
2026-05-07 01:01 44.05351 -121.58737 39202 ft 469 kts 172°
2026-05-07 01:01 43.98896 -121.57251 39217 ft 468 kts 172°
2026-05-07 01:02 43.92479 -121.55777 39212 ft 468 kts 172°
2026-05-07 01:02 43.86033 -121.54300 39205 ft 467 kts 172°
2026-05-07 01:03 43.79607 -121.52831 39199 ft 466 kts 171°
2026-05-07 01:03 43.73201 -121.51368 39197 ft 465 kts 172°
2026-05-07 01:04 43.66782 -121.49907 39199 ft 464 kts 171°
2026-05-07 01:04 43.60426 -121.48463 39203 ft 463 kts 171°
2026-05-07 01:05 43.54070 -121.47021 39213 ft 463 kts 171°
2026-05-07 01:05 43.47689 -121.45578 39221 ft 462 kts 171°
2026-05-07 01:06 43.41331 -121.44141 39220 ft 461 kts 171°
2026-05-07 01:06 43.34974 -121.42710 39226 ft 461 kts 171°
2026-05-07 01:07 43.28682 -121.41296 39231 ft 460 kts 171°
2026-05-07 01:07 43.22291 -121.39861 39232 ft 459 kts 171°
2026-05-07 01:08 43.15993 -121.38451 39247 ft 459 kts 171°
2026-05-07 01:08 43.09698 -121.37045 39246 ft 459 kts 171°
2026-05-07 01:09 43.03366 -121.35633 39250 ft 458 kts 171°
2026-05-07 01:09 42.97061 -121.34231 39244 ft 458 kts 172°
2026-05-07 01:10 42.90739 -121.32827 39260 ft 457 kts 172°
2026-05-07 01:10 42.84454 -121.31435 39248 ft 457 kts 172°
2026-05-07 01:11 42.78157 -121.30043 39242 ft 455 kts 172°
2026-05-07 01:11 42.71897 -121.28661 39242 ft 454 kts 172°
2026-05-07 01:12 42.65649 -121.27286 39234 ft 453 kts 172°
2026-05-07 01:12 42.59395 -121.25912 39228 ft 452 kts 172°
2026-05-07 01:13 42.53177 -121.24548 39223 ft 451 kts 172°
2026-05-07 01:13 42.46984 -121.23193 39221 ft 451 kts 172°
2026-05-07 01:14 42.40748 -121.21832 39215 ft 450 kts 173°
2026-05-07 01:14 42.34563 -121.20483 39227 ft 449 kts 173°
2026-05-07 01:15 42.28359 -121.19134 39233 ft 449 kts 173°
2026-05-07 01:15 42.22197 -121.17796 39238 ft 448 kts 173°
2026-05-07 01:16 42.16002 -121.16454 39233 ft 448 kts 173°
2026-05-07 01:16 42.09826 -121.15118 39235 ft 448 kts 173°
2026-05-07 01:17 42.03652 -121.13786 39222 ft 448 kts 173°
2026-05-07 01:17 41.97506 -121.12463 39225 ft 448 kts 173°
2026-05-07 01:18 41.91324 -121.11134 39235 ft 447 kts 173°
2026-05-07 01:18 41.85146 -121.09808 39218 ft 447 kts 173°
2026-05-07 01:19 41.78982 -121.08488 39206 ft 446 kts 173°
2026-05-07 01:19 41.72864 -121.07181 39227 ft 445 kts 173°
2026-05-07 01:20 41.66743 -121.05875 39221 ft 444 kts 173°
2026-05-07 01:20 41.60616 -121.04571 39227 ft 444 kts 173°
2026-05-07 01:21 41.54492 -121.03269 39217 ft 443 kts 174°
2026-05-07 01:21 41.48371 -121.01972 39231 ft 442 kts 174°
2026-05-07 01:22 41.42285 -121.00684 39243 ft 441 kts 174°
2026-05-07 01:22 41.36244 -120.99408 39255 ft 441 kts 174°
2026-05-07 01:23 41.30148 -120.98122 39248 ft 441 kts 174°
2026-05-07 01:23 41.24096 -120.96848 39269 ft 440 kts 174°
2026-05-07 01:24 41.18017 -120.95572 39263 ft 440 kts 174°
2026-05-07 01:24 41.11950 -120.94299 39268 ft 439 kts 174°
2026-05-07 01:25 41.05892 -120.93031 39274 ft 439 kts 174°
2026-05-07 01:25 40.99844 -120.91823 39278 ft 437 kts 179°
2026-05-07 01:26 40.93764 -120.91319 39283 ft 436 kts 180°
2026-05-07 01:26 40.87707 -120.90833 39273 ft 436 kts 180°
2026-05-07 01:27 40.81639 -120.90347 39279 ft 435 kts 180°
2026-05-07 01:27 40.75549 -120.89861 39279 ft 435 kts 180°
2026-05-07 01:28 40.69511 -120.89380 39276 ft 434 kts 180°
2026-05-07 01:28 40.63472 -120.88899 39277 ft 434 kts 180°
2026-05-07 01:29 40.57414 -120.88418 39273 ft 434 kts 180°
2026-05-07 01:29 40.51387 -120.87940 39275 ft 434 kts 180°
2026-05-07 01:30 40.45356 -120.87463 39271 ft 434 kts 180°
2026-05-07 01:30 40.39341 -120.86987 39263 ft 434 kts 180°
2026-05-07 01:31 40.33287 -120.86510 39259 ft 434 kts 180°
2026-05-07 01:31 40.27281 -120.86036 39248 ft 434 kts 180°
2026-05-07 01:32 40.21240 -120.85561 39241 ft 434 kts 180°
2026-05-07 01:32 40.15221 -120.85089 39243 ft 434 kts 180°
2026-05-07 01:33 40.09169 -120.84615 39243 ft 435 kts 180°
2026-05-07 01:33 40.03118 -120.84141 39236 ft 435 kts 180°
2026-05-07 01:34 39.97089 -120.83672 39239 ft 435 kts 180°
2026-05-07 01:34 39.91029 -120.83199 39254 ft 435 kts 180°
2026-05-07 01:35 39.85014 -120.82732 39260 ft 435 kts 180°
2026-05-07 01:35 39.78968 -120.82262 39270 ft 435 kts 180°
2026-05-07 01:36 39.72903 -120.81792 39285 ft 434 kts 180°
2026-05-07 01:36 39.66901 -120.81328 39275 ft 434 kts 180°
2026-05-07 01:37 39.60830 -120.80859 39264 ft 435 kts 179°
2026-05-07 01:37 39.54824 -120.80396 39253 ft 435 kts 179°
2026-05-07 01:38 39.48746 -120.79929 39251 ft 435 kts 179°
2026-05-07 01:38 39.42718 -120.79465 39241 ft 436 kts 179°
2026-05-07 01:39 39.36641 -120.78999 39233 ft 436 kts 179°
2026-05-07 01:39 39.30592 -120.78536 39223 ft 437 kts 179°
2026-05-07 01:40 39.24506 -120.78071 39220 ft 437 kts 179°
2026-05-07 01:40 39.18436 -120.77608 39214 ft 438 kts 179°
2026-05-07 01:41 39.12344 -120.77144 39195 ft 438 kts 179°
2026-05-07 01:41 39.06230 -120.76679 39162 ft 440 kts 179°
2026-05-07 01:42 39.00111 -120.76215 39137 ft 441 kts 179°
2026-05-07 01:42 38.93993 -120.75751 39128 ft 441 kts 179°
2026-05-07 01:43 38.87788 -120.75281 39126 ft 442 kts 179°
2026-05-07 01:43 38.81678 -120.74820 39136 ft 441 kts 179°
2026-05-07 01:44 38.75515 -120.74356 39143 ft 443 kts 178°
2026-05-07 01:44 38.69286 -120.73888 39140 ft 452 kts 178°
2026-05-07 01:45 38.62931 -120.73411 39140 ft 460 kts 178°
2026-05-07 01:45 38.56449 -120.72925 39123 ft 469 kts 178°
2026-05-07 01:46 38.49892 -120.72433 39122 ft 477 kts 178°
2026-05-07 01:46 38.43201 -120.71935 39119 ft 484 kts 178°
2026-05-07 01:47 38.36398 -120.71427 39118 ft 491 kts 178°
2026-05-07 01:47 38.29522 -120.70915 39114 ft 496 kts 178°
2026-05-07 01:48 38.22627 -120.70403 39107 ft 494 kts 177°
2026-05-07 01:48 38.15790 -120.69896 39109 ft 495 kts 177°
2026-05-07 01:49 38.08907 -120.69386 39103 ft 493 kts 177°
2026-05-07 01:49 38.02056 -120.68881 39101 ft 496 kts 177°
2026-05-07 01:50 37.95149 -120.68371 39092 ft 494 kts 177°
2026-05-07 01:50 37.88268 -120.67865 39081 ft 496 kts 177°
2026-05-07 01:51 37.81367 -120.67358 39066 ft 494 kts 177°
2026-05-07 01:51 37.74491 -120.66854 39058 ft 495 kts 177°
2026-05-07 01:52 37.67659 -120.66354 39061 ft 494 kts 177°
2026-05-07 01:52 37.60736 -120.65848 39056 ft 496 kts 176°
2026-05-07 01:53 37.53885 -120.65349 39049 ft 495 kts 176°
2026-05-07 01:53 37.46995 -120.64848 39044 ft 495 kts 176°
2026-05-07 01:54 37.40134 -120.64349 39055 ft 496 kts 176°
2026-05-07 01:54 37.33250 -120.63689 39060 ft 493 kts 169°
2026-05-07 01:55 37.26566 -120.61684 39054 ft 495 kts 165°
2026-05-07 01:55 37.19904 -120.59552 39058 ft 495 kts 164°
2026-05-07 01:56 37.13193 -120.57386 39051 ft 495 kts 164°
2026-05-07 01:56 37.07055 -120.55402 39051 ft 494 kts 164°
2026-05-07 01:57 37.00386 -120.53246 39045 ft 493 kts 164°
2026-05-07 01:57 36.93732 -120.51098 39047 ft 494 kts 164°
2026-05-07 01:58 36.87066 -120.48951 39033 ft 493 kts 163°
2026-05-07 01:58 36.80400 -120.46806 39030 ft 494 kts 163°
2026-05-07 01:59 36.73741 -120.44669 39031 ft 493 kts 163°
2026-05-07 01:59 36.67067 -120.42529 39038 ft 494 kts 163°
2026-05-07 02:00 36.60552 -120.40444 39042 ft 494 kts 163°
2026-05-07 02:00 36.53881 -120.38314 39046 ft 495 kts 163°
2026-05-07 02:01 36.47208 -120.36187 39047 ft 494 kts 163°
2026-05-07 02:01 36.40544 -120.34065 39054 ft 493 kts 164°
2026-05-07 02:02 36.33850 -120.31939 39054 ft 493 kts 163°
2026-05-07 02:02 36.27192 -120.29828 39056 ft 495 kts 163°
2026-05-07 02:03 36.20556 -120.27727 39057 ft 494 kts 163°
2026-05-07 02:03 36.13876 -120.25616 39057 ft 494 kts 163°
2026-05-07 02:04 36.07206 -120.23511 39061 ft 494 kts 163°
2026-05-07 02:04 36.00515 -120.21405 39063 ft 492 kts 163°
2026-05-07 02:05 35.93879 -120.19319 39070 ft 492 kts 163°
2026-05-07 02:05 35.87213 -120.17226 39055 ft 494 kts 163°
2026-05-07 02:06 35.80579 -120.15148 39060 ft 494 kts 163°
2026-05-07 02:06 35.73883 -120.13054 39061 ft 494 kts 163°
2026-05-07 02:07 35.67006 -120.10580 39081 ft 490 kts 153°
2026-05-07 02:07 35.58075 -120.04301 39065 ft 483 kts 145°
2026-05-07 02:08 35.52305 -119.99989 39076 ft 486 kts 144°
2026-05-07 02:08 35.46532 -119.95660 39081 ft 484 kts 144°
2026-05-07 02:09 35.40841 -119.91396 38953 ft 467 kts 144°
2026-05-07 02:09 35.38018 -119.89277 38008 ft 471 kts 144°
2026-05-07 02:09 35.35220 -119.87179 37129 ft 474 kts 144°
2026-05-07 02:10 35.32404 -119.85071 36334 ft 474 kts 145°
2026-05-07 02:10 35.29586 -119.82950 35741 ft 471 kts 143°
2026-05-07 02:10 35.26920 -119.80610 35053 ft 467 kts 139°
2026-05-07 02:10 35.24333 -119.78175 34353 ft 467 kts 139°
2026-05-07 02:11 35.21771 -119.75783 33659 ft 466 kts 139°
2026-05-07 02:11 35.19162 -119.73347 33001 ft 466 kts 139°
2026-05-07 02:11 35.16605 -119.70962 32372 ft 465 kts 139°
2026-05-07 02:11 35.14027 -119.68559 31744 ft 458 kts 139°
2026-05-07 02:12 35.11524 -119.66224 31150 ft 459 kts 139°
2026-05-07 02:12 35.08934 -119.63811 30555 ft 468 kts 139°
2026-05-07 02:12 35.06301 -119.61360 29953 ft 475 kts 139°
2026-05-07 02:12 35.03691 -119.58934 29366 ft 474 kts 139°
2026-05-07 02:13 35.01067 -119.56499 28835 ft 468 kts 139°
2026-05-07 02:13 34.98497 -119.54114 28214 ft 464 kts 139°
2026-05-07 02:13 34.95911 -119.51717 27627 ft 457 kts 139°
2026-05-07 02:13 34.93399 -119.49390 27085 ft 451 kts 139°
2026-05-07 02:14 34.90887 -119.47075 26566 ft 448 kts 140°
2026-05-07 02:14 34.88363 -119.44815 26055 ft 447 kts 140°
2026-05-07 02:14 34.85870 -119.42582 25554 ft 446 kts 140°
2026-05-07 02:14 34.83348 -119.40325 25041 ft 443 kts 140°
2026-05-07 02:15 34.80866 -119.38107 24541 ft 440 kts 140°
2026-05-07 02:15 34.78392 -119.35896 24085 ft 435 kts 140°
2026-05-07 02:15 34.75946 -119.33713 23754 ft 428 kts 140°
2026-05-07 02:15 34.73577 -119.31620 23508 ft 417 kts 141°
2026-05-07 02:16 34.71223 -119.29562 22961 ft 414 kts 141°
2026-05-07 02:16 34.68871 -119.27506 22456 ft 409 kts 141°
2026-05-07 02:16 34.66570 -119.25495 21850 ft 408 kts 141°
2026-05-07 02:16 34.64280 -119.23505 21589 ft 397 kts 141°
2026-05-07 02:17 34.62026 -119.21558 20952 ft 398 kts 141°
2026-05-07 02:17 34.59778 -119.19621 20415 ft 396 kts 141°
2026-05-07 02:17 34.57534 -119.17687 19912 ft 393 kts 141°
2026-05-07 02:17 34.55307 -119.15747 19464 ft 387 kts 140°
2026-05-07 02:18 34.53144 -119.13826 18978 ft 384 kts 140°
2026-05-07 02:18 34.50972 -119.11901 18504 ft 382 kts 140°
2026-05-07 02:18 34.48853 -119.10026 18042 ft 379 kts 140°
2026-05-07 02:18 34.46722 -119.08141 17508 ft 378 kts 140°
2026-05-07 02:19 34.44619 -119.06284 17125 ft 374 kts 140°
2026-05-07 02:19 34.42480 -119.04420 16542 ft 373 kts 141°
2026-05-07 02:19 34.40390 -119.02610 16115 ft 368 kts 140°
2026-05-07 02:19 34.38309 -119.00809 15716 ft 363 kts 140°
2026-05-07 02:20 34.36250 -118.99025 15199 ft 361 kts 140°
2026-05-07 02:20 34.34217 -118.97262 14725 ft 359 kts 139°
2026-05-07 02:20 34.32222 -118.95454 14233 ft 355 kts 138°
2026-05-07 02:20 34.30273 -118.93684 13852 ft 350 kts 139°
2026-05-07 02:21 34.28313 -118.91905 13350 ft 348 kts 139°
2026-05-07 02:21 34.26368 -118.90140 12766 ft 350 kts 139°
2026-05-07 02:21 34.24407 -118.88347 12181 ft 356 kts 139°
2026-05-07 02:21 34.22477 -118.86578 11912 ft 332 kts 139°
2026-05-07 02:22 34.20720 -118.84972 11965 ft 299 kts 138°
2026-05-07 02:22 34.19063 -118.83446 11992 ft 301 kts 137°
2026-05-07 02:22 34.17374 -118.81889 12004 ft 310 kts 138°
2026-05-07 02:22 34.15660 -118.80281 11984 ft 312 kts 134°
2026-05-07 02:23 34.14049 -118.78495 11527 ft 313 kts 132°
2026-05-07 02:23 34.12463 -118.76733 11074 ft 305 kts 133°
2026-05-07 02:23 34.10898 -118.75016 10729 ft 296 kts 133°
2026-05-07 02:23 34.09376 -118.73353 10455 ft 291 kts 133°
2026-05-07 02:24 34.07850 -118.71686 10232 ft 296 kts 133°
2026-05-07 02:24 34.06337 -118.70039 9834 ft 294 kts 134°
2026-05-07 02:24 34.04831 -118.68406 9575 ft 281 kts 134°
2026-05-07 02:24 34.03548 -118.66727 9342 ft 270 kts 114°
2026-05-07 02:25 34.02960 -118.64572 9077 ft 271 kts 95°
2026-05-07 02:25 34.02692 -118.62321 8684 ft 273 kts 95°
2026-05-07 02:25 34.02433 -118.60080 8341 ft 268 kts 94°
2026-05-07 02:25 34.02198 -118.57864 7933 ft 266 kts 94°
2026-05-07 02:26 34.01972 -118.55633 7617 ft 263 kts 94°
2026-05-07 02:26 34.01759 -118.53454 7423 ft 258 kts 94°
2026-05-07 02:26 34.01556 -118.51382 7410 ft 238 kts 94°
2026-05-07 02:26 34.01374 -118.49487 7413 ft 223 kts 93°
2026-05-07 02:27 34.01197 -118.47610 7439 ft 229 kts 93°
2026-05-07 02:27 34.01096 -118.45657 7455 ft 231 kts 80°
2026-05-07 02:27 34.01385 -118.43748 7239 ft 237 kts 76°
2026-05-07 02:27 34.01713 -118.41814 6870 ft 236 kts 76°
2026-05-07 02:28 34.02038 -118.39873 6562 ft 231 kts 76°
2026-05-07 02:28 34.02354 -118.38004 6282 ft 227 kts 76°
2026-05-07 02:28 34.02672 -118.36134 5997 ft 226 kts 78°
2026-05-07 02:28 34.02878 -118.34274 5735 ft 229 kts 81°
2026-05-07 02:29 34.03074 -118.32347 5453 ft 233 kts 81°
2026-05-07 02:29 34.03275 -118.30394 5154 ft 234 kts 81°
2026-05-07 02:29 34.03474 -118.28442 4794 ft 238 kts 81°
2026-05-07 02:29 34.03679 -118.26469 4458 ft 240 kts 79°
2026-05-07 02:30 34.03820 -118.24495 4166 ft 234 kts 97°
2026-05-07 02:30 34.03258 -118.22738 4036 ft 223 kts 125°
2026-05-07 02:30 34.02114 -118.21458 3750 ft 230 kts 150°
2026-05-07 02:30 34.00577 -118.20832 3502 ft 231 kts 175°
2026-05-07 02:31 33.98999 -118.21000 3297 ft 232 kts 199°
2026-05-07 02:31 33.97577 -118.21924 3050 ft 226 kts 223°
2026-05-07 02:31 33.96612 -118.23363 2775 ft 221 kts 245°
2026-05-07 02:31 33.96187 -118.25044 2562 ft 209 kts 266°
2026-05-07 02:32 33.96199 -118.26785 2253 ft 205 kts 271°
2026-05-07 02:32 33.96150 -118.28394 2128 ft 178 kts 266°
2026-05-07 02:32 33.96107 -118.29819 1952 ft 170 kts 268°
2026-05-07 02:32 33.96068 -118.31191 1715 ft 153 kts 267°
2026-05-07 02:33 33.96008 -118.32385 1519 ft 138 kts 264°
2026-05-07 02:33 33.95902 -118.33543 1227 ft 137 kts 262°
2026-05-07 02:33 33.95779 -118.34663 1017 ft 134 kts 262°
2026-05-07 02:33 33.95658 -118.35781 861 ft 135 kts 262°
2026-05-07 02:34 33.95552 -118.36912 700 ft 135 kts 263°
2026-05-07 02:34 33.95439 -118.38043 487 ft 137 kts 262°
2026-05-07 02:34 33.95321 -118.39150 305 ft 132 kts 263°
2026-05-07 02:34 33.95211 -118.40237 146 ft 130 kts 262°
2026-05-07 02:35 33.95104 -118.41239 131 ft 98 kts 262°
2026-05-07 02:35 33.95039 -118.41888 128 ft 62 kts 264°
2026-05-07 02:35 33.94991 -118.42348 126 ft 44 kts 258°
2026-05-07 02:35 33.94891 -118.42624 124 ft 18 kts 235°
2026-05-07 02:36 33.94854 -118.42678 123 ft 0 kts 225°
2026-05-07 02:36 33.94852 -118.42681 122 ft 2 kts 225°
2026-05-07 02:36 33.94825 -118.42712 122 ft 9 kts 221°
2026-05-07 02:36 33.94741 -118.42773 121 ft 18 kts 195°
2026-05-07 02:37 33.94596 -118.42773 118 ft 21 kts 174°
2026-05-07 02:37 33.94452 -118.42752 115 ft 20 kts 173°
2026-05-07 02:37 33.94314 -118.42731 112 ft 7 kts 173°
2026-05-07 02:37 33.94293 -118.42732 112 ft 2 kts 205°
2026-05-07 02:38 33.94283 -118.42751 112 ft 3 kts 257°
2026-05-07 02:38 33.94279 -118.42793 112 ft 6 kts 263°
2026-05-07 02:38 33.94273 -118.42842 112 ft 5 kts 263°
2026-05-07 02:38 33.94272 -118.42853 112 ft 0 kts 263°